Powrót do katalogu

STARLINK-5271

AktywnyŁącznośćVLEO
NORAD 54194·PAYLOAD·🇺🇸 United States

Wystrzelony Oct 28, 2022 z Vandenberg Space Force Base

Loading…

Następne Przeloty (najbliższe 24 godziny)

TLE

ŚwieżeSource: CelesTrak SupGP

Epoka: Sep 14, 2026, 14:22 UTC

1 54194C 22141AP  26257.59909722 -.00767010  00000+0 -22319-1 0  2575
2 54194  53.1587 217.0185 0001310  96.5051  22.0617 15.35252679    13

Śledź STARLINK-5271 w czasie rzeczywistym z AllMySat

Download on the App Store